DELTA 1 DEB, 10874

Orbit data source: Space-Track

DELTA 1 DEB, 10874 is space debris in SSO originally from a launch on Thu, 29 Jul 1976 UTC launched from the Air Force Western Test Range (AFWTR). Debris objects in space refer to the collection of defunct objects orbiting the Earth. Examples of debris include non-operational satellites, rocket bodies, and fragments generated from explosions, collisions, or faulty payload assembly.

Loading next visibility...
Identifier
10874, 1976-077DC
Orbit
SSO
Country
Flag of USUS
Related business
Manufacturer
Unknown
Mission
Spacecraft
Bus & Motor
Unknown
Mass
Unknown
Launch date (UTC)
1976-07-29 (50 years ago)
Launch vehicle
Unknown
Launch site
Air Force Western Test Range (AFWTR)
Object type
Payload
Rocket body
Debris
Shape & HBR
Unknown shape, 0.1 m
Radar Cross Section
Medium (>0.1 m² and <1 m²)

Expand to show TLE details & history
Last TLE update: 8 hours ago

TLE from 8 hours ago
0 DELTA 1 DEB
1 10874U 76077DC  26256.09310060  .00001062  00000-0  28586-2 0  9997
2 10874 102.0149  73.1256 0066941  78.6286  40.7763 13.17252369349042
Epoch: 2026-09-13T02:14Z
TLE epoch observation values (Epoch: 2026-09-13T02:14:03.891Z)
Latitude
58.07349°
Longitude
-112.61664°
Altitude
1,166.584 km
Speed
7.294 km/s
True Right ascension
18h 11m 58s
True Declination
57° 55' 38"
Sunlit
Object was in daylight at epoch
Visualization orbit readout
Latitude
Unknown
Longitude
Unknown
Altitude
Unknown
Speed
Unknown
Apparent Right ascension
Unknown
Apparent Declination
Unknown
Sunlit
N/A
Visualization observer readout
Local Sidereal Time
02:33:27
Azimuth
Unknown
Elevation
Unknown
Doppler factor
Unknown
Orbital elements
Apogee altitude
1,243.389 km
Perigee altitude
1,142.029 km
Semi-major axis
7,570.846 km
Eccentricity
0.00669
Inclination
102.0149°
RAAN
73.1256°
Arg. of periapsis
78.6286°
True anomaly
41.28048°
Mean anomaly
40.7763°
Eccentric anomaly
41.02807°
Mean motion
3.29478 °/min
Orbital period
109.26 mins
BSTAR
0.0028586
Loading maneuver chart data...
Computing Atmospheric mass density...
Loading historical data...
Loading historical data...
Loading historical data...
Loading historical data...
Loading historical data...
Loading historical data...
Loading historical data...

Documentation

Showing up to 5 results
|